Orbital Elements at Epoch 2459200.5 (2020-Dec-17.0) TDB
Reference: JPL 21 (heliocentric ecliptic J2000)
Element | Value | Uncertainty (1-sigma) | Units |
e | .1545375945771958 | 3.2455e-08 | |
a | 2.374626223113776 | 8.9195e-09 | au |
q | 2.007657198573841 | 7.6042e-08 | au |
i | 3.599526723673408 | 3.3285e-06 | deg |
node | 97.45984675664243 | 7.3167e-05 | deg |
peri | 137.6844966613901 | 7.4615e-05 | deg |
M | 126.3029478730945 | 1.6364e-05 | deg |
tp | 2458731.576171366788 (2019-Sep-05.07617137) | 5.9496e-05 | TDB |
period | 1336.568790758346 3.66 | 7.5305e-06 2.062e-08 | d yr |
n | .2693464058784003 | 1.5176e-09 | deg/d |
Q | 2.74159524765371 | 1.0298e-08 | au |
|
| | Orbit Determination Parameters
Additional Information
|